Starlink 3075

operational
NORAD ID: 49409 Int'l Des: 2021-104 Owner: SPXS Country: US Constellation: starlink
LEOCIRCULAR

About Starlink 3075

Description loading...

Live Position

Loading 3D Globe...

Upcoming Passes

Altitude History

Altitude vs Time

uPlot chart will show altitude changes over time

Two-Line Element Set

1 49409U 21104B 25303.82986182 .00000741 00000-0 64666-4 0 9995
2 49409 53.2161 92.0834 0001559 92.0280 268.0891 15.08844097219038
Epoch: Oct 30, 2025 • Age: 5 hours

Current Status

Altitude 542.7 km
Velocity 7.60 km/s
Sub-Earth Point 41.43°N, 171.94°E
Launch Date Nov 13, 2021
Age 3.9 years
Type internet

Technical Details

Classification Payload
Mass 290.00 kg
Dry Mass 270.00 kg
Total Mass 290.00 kg
Length 0.20 m
Diameter 2.80 m
Span 9.00 m
Shape Box + pan
Manufacturer SPXS
Bus Type Starlink
Phase Status In Orbit
Owner/State SPXS/US

Large Constellations

Loading constellations...